Location: Chervonnoye
(48.6000°N, 34.4000°E)
Time: 06:23:44
(UTC+00:00)

Nadezhda 1 Rocket - Pass Details

Date: 25 April 2021
Orbit: 940 x 1006 km, 83.0° (Epoch: 13 May)

Event Time Altitude Azimuth Distance (km) Brightness Sun altitude
Exits shadow 21:49:02 72° 215° (SW) 1,053 3.9 -27.9°
Maximum altitude 21:49:42 82° 279° (W) 1,018 4.0 -27.9°
Drops below altitude 10° 21:56:05 10° 8° (N) 2,769 7.3 -27.8°
Sets 21:58:37 0° 9° (N) 3,713 8.3 -27.8°
